timestamp,wind_dir_avg,wind_spd_avg,wind_spd_max_dir,wind_spd_gust,battery_voltage,lat,long
2024-01-02 00:04:00+00:00,333.0,7.16,330.0,9.38,12.33,47.59359,-54.27349
2024-01-02 00:14:00+00:00,348.0,7.77,331.0,9.94,12.25,47.59359,-54.27349
2024-01-02 00:24:00+00:00,359.0,7.85,2.0,8.81,12.25,47.59359,-54.27349
2024-01-02 00:34:00+00:00,332.0,8.64,327.0,10.34,12.25,47.59359,-54.27349
2024-01-02 00:44:00+00:00,357.0,7.99,0.0,8.69,12.25,47.59359,-54.27349
2024-01-02 00:54:00+00:00,328.0,6.75,314.0,8.74,12.25,47.59359,-54.27349
2024-01-02 01:04:00+00:00,346.0,6.49,326.0,8.15,12.25,47.59359,-54.27349
2024-01-02 01:14:01+00:00,0.0,6.4,2.0,7.41,12.25,47.59359,-54.27349
2024-01-02 01:24:01+00:00,355.0,6.97,327.0,8.25,12.25,47.59359,-54.27349
2024-01-02 01:34:01+00:00,353.0,7.42,325.0,8.24,12.25,47.59359,-54.27349
2024-01-02 01:44:01+00:00,327.0,7.82,317.0,9.12,12.25,47.59359,-54.27349
2024-01-02 01:54:01+00:00,351.0,5.99,315.0,7.33,12.25,47.59359,-54.27349
2024-01-02 02:04:01+00:00,322.0,7.6,317.0,9.0,12.25,47.59359,-54.27349
2024-01-02 02:14:00+00:00,337.0,8.02,325.0,10.28,12.25,47.59359,-54.27349
2024-01-02 02:24:00+00:00,325.0,8.41,326.0,10.52,12.25,47.59359,-54.27349
2024-01-02 02:34:00+00:00,328.0,7.67,327.0,9.14,12.25,47.59359,-54.27349
2024-01-02 02:44:00+00:00,336.0,8.23,326.0,9.72,12.25,47.59359,-54.27349
2024-01-02 02:54:00+00:00,329.0,8.11,325.0,9.5,12.25,47.59359,-54.27349
2024-01-02 03:04:00+00:00,344.0,6.98,328.0,9.0,12.25,47.59359,-54.27349
2024-01-02 03:14:00+00:00,315.0,6.37,304.0,7.75,12.17,47.59359,-54.27349
2024-01-02 03:24:00+00:00,308.0,6.05,307.0,6.89,12.17,47.59359,-54.27349
2024-01-02 03:34:00+00:00,316.0,5.81,302.0,7.24,12.17,47.59359,-54.27349
2024-01-02 03:44:00+00:00,317.0,5.94,313.0,7.29,12.17,47.59359,-54.27349
2024-01-02 03:54:00+00:00,310.0,5.71,307.0,6.85,12.17,47.59359,-54.27349
2024-01-02 04:04:00+00:00,309.0,5.09,310.0,6.06,12.17,47.59359,-54.27349
2024-01-02 04:14:00+00:00,305.0,5.23,302.0,6.31,12.17,47.59359,-54.27349
2024-01-02 04:24:00+00:00,314.0,5.84,307.0,6.75,12.17,47.59359,-54.27349
2024-01-02 04:34:00+00:00,325.0,7.5,325.0,8.47,12.17,47.59359,-54.27349
2024-01-02 04:44:00+00:00,323.0,7.19,321.0,8.79,12.17,47.59359,-54.27349
2024-01-02 04:54:00+00:00,315.0,6.83,312.0,8.04,12.17,47.59359,-54.27349
2024-01-02 05:04:00+00:00,319.0,6.8,319.0,8.2,12.17,47.59359,-54.27349
2024-01-02 05:14:00+00:00,323.0,6.11,312.0,7.94,12.17,47.59359,-54.27349
2024-01-02 05:24:00+00:00,330.0,5.49,320.0,7.47,12.17,47.59359,-54.27349
2024-01-02 05:34:00+00:00,328.0,5.16,309.0,7.54,12.17,47.59359,-54.27349
2024-01-02 05:44:00+00:00,345.0,7.4,323.0,9.02,12.17,47.59359,-54.27349
2024-01-02 05:54:00+00:00,332.0,6.54,324.0,8.46,12.17,47.59359,-54.27349
2024-01-02 06:04:00+00:00,351.0,7.43,335.0,8.49,12.17,47.59359,-54.27349
2024-01-02 06:14:00+00:00,341.0,7.24,333.0,8.29,12.09,47.59359,-54.27349
2024-01-02 06:24:00+00:00,322.0,7.46,320.0,9.44,12.09,47.59359,-54.27349
2024-01-02 06:34:00+00:00,323.0,5.25,318.0,7.25,12.09,47.59359,-54.27349
2024-01-02 06:44:00+00:00,325.0,6.52,324.0,7.55,12.09,47.59359,-54.27349
2024-01-02 06:54:00+00:00,323.0,5.74,312.0,7.19,12.09,47.59359,-54.27349
2024-01-02 07:04:00+00:00,332.0,5.12,319.0,6.65,12.09,47.59359,-54.27349
2024-01-02 07:14:00+00:00,340.0,4.72,348.0,6.02,12.09,47.59359,-54.27349
2024-01-02 07:24:00+00:00,274.0,4.71,276.0,6.27,12.09,47.59359,-54.27349
2024-01-02 07:34:00+00:00,283.0,4.28,284.0,6.01,12.09,47.59359,-54.27349
2024-01-02 07:44:00+00:00,284.0,4.87,277.0,6.54,12.09,47.59359,-54.27349
2024-01-02 07:54:00+00:00,340.0,5.92,346.0,7.25,12.09,47.59359,-54.27349
2024-01-02 08:04:00+00:00,295.0,5.91,289.0,8.18,12.09,47.59359,-54.27349
2024-01-02 08:14:00+00:00,305.0,6.34,304.0,7.62,12.09,47.59359,-54.27349
2024-01-02 08:24:00+00:00,316.0,4.45,318.0,6.2,12.09,47.59359,-54.27349
2024-01-02 08:34:00+00:00,299.0,5.36,294.0,7.15,12.09,47.59359,-54.27349
2024-01-02 08:44:00+00:00,321.0,6.2,310.0,7.51,12.09,47.59359,-54.27349
2024-01-02 08:54:00+00:00,307.0,4.86,309.0,6.66,12.09,47.59359,-54.27349
2024-01-02 09:04:00+00:00,324.0,4.9,322.0,6.2,12.09,47.59359,-54.27349
2024-01-02 09:14:00+00:00,335.0,3.61,347.0,4.66,12.01,47.59359,-54.27349
2024-01-02 09:24:00+00:00,314.0,4.69,318.0,5.9,12.01,47.59359,-54.27349
2024-01-02 09:34:00+00:00,310.0,3.14,299.0,4.38,12.01,47.59359,-54.27349
2024-01-02 09:44:00+00:00,305.0,4.96,297.0,6.22,12.01,47.59359,-54.27349
2024-01-02 09:54:00+00:00,310.0,4.6,307.0,5.93,12.01,47.59359,-54.27349
2024-01-02 10:04:00+00:00,326.0,4.56,329.0,5.85,12.01,47.59359,-54.27349
2024-01-02 10:14:00+00:00,278.0,4.57,271.0,5.74,12.01,47.59359,-54.27349
2024-01-02 10:24:00+00:00,297.0,3.18,294.0,4.28,12.01,47.59359,-54.27349
2024-01-02 10:34:00+00:00,291.0,4.06,283.0,5.96,12.01,47.59359,-54.27349
2024-01-02 10:44:00+00:00,303.0,4.47,310.0,5.32,12.01,47.59359,-54.27349
2024-01-02 10:54:00+00:00,269.0,4.89,269.0,6.62,12.01,47.59359,-54.27349
2024-01-02 11:04:00+00:00,305.0,4.91,306.0,7.36,12.01,47.59359,-54.27349
2024-01-02 11:14:00+00:00,291.0,6.59,290.0,7.52,12.01,47.59359,-54.27349
2024-01-02 11:24:00+00:00,286.0,5.4,285.0,6.54,12.01,47.59359,-54.27349
2024-01-02 11:34:00+00:00,297.0,5.46,300.0,6.61,12.01,47.59359,-54.27349
2024-01-02 11:44:00+00:00,296.0,5.2,294.0,6.62,12.01,47.59359,-54.27349
2024-01-02 11:54:00+00:00,284.0,4.81,282.0,6.13,12.01,47.59359,-54.27349
2024-01-02 12:04:00+00:00,271.0,3.31,278.0,4.27,12.01,47.59359,-54.27349
2024-01-02 12:14:00+00:00,267.0,4.06,275.0,6.12,12.25,47.59359,-54.27349
2024-01-02 12:24:00+00:00,269.0,5.18,272.0,6.47,12.25,47.59359,-54.27349
2024-01-02 12:34:00+00:00,266.0,5.16,268.0,6.12,12.25,47.59359,-54.27349
2024-01-02 12:44:00+00:00,251.0,5.11,255.0,6.79,12.25,47.59359,-54.27349
2024-01-02 12:54:00+00:00,256.0,6.18,263.0,7.27,12.25,47.59359,-54.27349
2024-01-02 13:04:00+00:00,254.0,5.98,252.0,8.2,12.25,47.59359,-54.27349
2024-01-02 13:14:00+00:00,276.0,5.01,276.0,5.96,13.92,47.59359,-54.27349
2024-01-02 13:24:00+00:00,266.0,5.55,268.0,6.53,13.92,47.59359,-54.27349
2024-01-02 13:34:00+00:00,270.0,6.9,266.0,7.4,13.92,47.59359,-54.27349
2024-01-02 13:44:00+00:00,252.0,7.54,249.0,8.35,13.92,47.59359,-54.27349
2024-01-02 13:54:00+00:00,268.0,6.04,271.0,7.05,13.92,47.59359,-54.27349
2024-01-02 14:04:00+00:00,252.0,4.95,251.0,6.36,13.92,47.59359,-54.27349
2024-01-02 14:14:00+00:00,255.0,7.72,251.0,9.05,14.08,47.59359,-54.27349
2024-01-02 14:24:00+00:00,263.0,5.63,265.0,7.84,14.08,47.59359,-54.27349
2024-01-02 14:34:00+00:00,278.0,4.72,250.0,7.11,14.08,47.59359,-54.27349
2024-01-02 14:44:00+00:00,243.0,6.27,239.0,7.31,14.08,47.59359,-54.27349
2024-01-02 14:54:00+00:00,259.0,5.72,248.0,6.99,14.08,47.59359,-54.27349
2024-01-02 15:04:00+00:00,279.0,5.38,281.0,6.5,14.08,47.59359,-54.27349
2024-01-02 15:14:00+00:00,251.0,4.6,261.0,6.95,13.44,47.59359,-54.27349
2024-01-02 15:24:00+00:00,279.0,5.06,277.0,6.28,13.44,47.59359,-54.27349
2024-01-02 15:34:00+00:00,275.0,4.81,279.0,6.33,13.44,47.59359,-54.27349
2024-01-02 15:44:00+00:00,292.0,3.74,291.0,6.37,13.44,47.59359,-54.27349
2024-01-02 15:54:00+00:00,275.0,4.0,265.0,6.13,13.44,47.59359,-54.27349
2024-01-02 16:04:00+00:00,308.0,3.96,302.0,5.03,13.44,47.59359,-54.27349
2024-01-02 16:14:00+00:00,291.0,5.28,284.0,6.86,13.53,47.59359,-54.27349
2024-01-02 16:24:00+00:00,279.0,4.36,276.0,6.39,13.53,47.59359,-54.27349
2024-01-02 16:34:00+00:00,296.0,4.27,290.0,6.59,13.53,47.59359,-54.27349
2024-01-02 16:44:00+00:00,264.0,6.14,261.0,8.49,13.53,47.59359,-54.27349
2024-01-02 16:54:00+00:00,275.0,4.0,273.0,7.92,13.53,47.59359,-54.27349
2024-01-02 17:04:00+00:00,286.0,3.08,290.0,5.36,13.53,47.59359,-54.27349
2024-01-02 17:14:00+00:00,270.0,3.81,263.0,7.61,13.44,47.59359,-54.27349
2024-01-02 17:24:00+00:00,285.0,7.96,284.0,9.07,13.44,47.59359,-54.27349
2024-01-02 17:34:00+00:00,285.0,9.43,284.0,14.07,13.44,47.59359,-54.27349
2024-01-02 17:44:00+00:00,296.0,8.3,298.0,9.53,13.44,47.59359,-54.27349
2024-01-02 17:54:00+00:00,284.0,8.02,286.0,8.62,13.44,47.59359,-54.27349
2024-01-02 18:04:00+00:00,297.0,5.93,291.0,8.05,13.44,47.59359,-54.27349
2024-01-02 18:14:00+00:00,280.0,4.68,271.0,7.52,13.37,47.59359,-54.27349
2024-01-02 18:24:00+00:00,273.0,8.08,278.0,8.93,13.37,47.59359,-54.27349
2024-01-02 18:34:00+00:00,247.0,3.13,253.0,5.97,13.37,47.59359,-54.27349
2024-01-02 18:44:00+00:00,260.0,3.9,263.0,7.61,13.37,47.59359,-54.27349
2024-01-02 18:54:00+00:00,278.0,6.11,286.0,8.99,13.37,47.59359,-54.27349
2024-01-02 19:04:00+00:00,268.0,4.66,266.0,5.38,13.37,47.59359,-54.27349
2024-01-02 19:14:00+00:00,245.0,4.83,252.0,6.09,13.05,47.59359,-54.27349
2024-01-02 19:24:00+00:00,253.0,4.48,259.0,6.79,13.05,47.59359,-54.27349
2024-01-02 19:34:00+00:00,241.0,5.3,231.0,6.44,13.05,47.59359,-54.27349
2024-01-02 19:44:00+00:00,247.0,5.59,260.0,8.09,13.05,47.59359,-54.27349
2024-01-02 19:54:00+00:00,250.0,6.32,251.0,8.73,13.05,47.59359,-54.27349
2024-01-02 20:04:00+00:00,267.0,7.81,274.0,8.91,13.05,47.59359,-54.27349
2024-01-02 20:14:00+00:00,237.0,5.78,237.0,6.76,12.49,47.59359,-54.27349
2024-01-02 20:24:00+00:00,242.0,5.42,242.0,6.09,12.49,47.59359,-54.27349
2024-01-02 20:34:00+00:00,230.0,5.61,230.0,6.19,12.49,47.59359,-54.27349
2024-01-02 20:44:00+00:00,225.0,5.67,225.0,6.23,12.49,47.59359,-54.27349
2024-01-02 20:54:00+00:00,234.0,8.28,236.0,10.39,12.49,47.59359,-54.27349
2024-01-02 21:04:00+00:00,230.0,6.17,236.0,7.95,12.49,47.59359,-54.27349
2024-01-02 21:14:00+00:00,237.0,7.28,250.0,8.83,12.41,47.59359,-54.27349
2024-01-02 21:24:00+00:00,224.0,6.19,231.0,7.2,12.41,47.59359,-54.27349
2024-01-02 21:34:00+00:00,219.0,7.03,214.0,7.98,12.41,47.59359,-54.27349
2024-01-02 21:44:00+00:00,225.0,6.57,224.0,8.49,12.41,47.59359,-54.27349
2024-01-02 21:54:00+00:00,231.0,7.7,233.0,9.24,12.41,47.59359,-54.27349
2024-01-02 22:04:00+00:00,228.0,6.88,230.0,7.95,12.41,47.59359,-54.27349
2024-01-02 22:14:00+00:00,219.0,7.17,217.0,9.0,12.33,47.59359,-54.27349
2024-01-02 22:24:00+00:00,233.0,7.32,232.0,10.4,12.33,47.59359,-54.27349
2024-01-02 22:34:00+00:00,233.0,8.12,240.0,9.33,12.33,47.59359,-54.27349
2024-01-02 22:44:00+00:00,238.0,6.96,249.0,8.4,12.33,47.59359,-54.27349
2024-01-02 22:54:00+00:00,251.0,10.57,250.0,11.51,12.33,47.59359,-54.27349
2024-01-02 23:04:00+00:00,244.0,10.67,243.0,12.14,12.33,47.59359,-54.27349
2024-01-02 23:14:00+00:00,247.0,10.98,240.0,13.19,12.33,47.59359,-54.27349
2024-01-02 23:24:00+00:00,238.0,11.17,245.0,13.0,12.33,47.59359,-54.27349
2024-01-02 23:34:00+00:00,237.0,10.06,241.0,11.35,12.33,47.59359,-54.27349
2024-01-02 23:44:00+00:00,247.0,11.28,247.0,12.64,12.33,47.59359,-54.27349
2024-01-02 23:54:00+00:00,248.0,10.57,250.0,12.54,12.33,47.59359,-54.27349
